TimeCDT,TemperatureF,Dew PointF,Humidity,Sea Level PressureIn,VisibilityMPH,Wind Direction,Wind SpeedMPH,Gust SpeedMPH,PrecipitationIn,Events,Conditions,WindDirDegrees,DateUTC
2:53 AM,54.0,48.9,83,30.05,10.0,NNE,13.8,-,N/A,,Overcast,30,2012-10-26 07:53:00
3:12 AM,53.6,48.2,82,30.05,8.0,NNE,16.1,23.0,0.00,Rain-Thunderstorm,Light Rain,20,2012-10-26 08:12:00
3:27 AM,51.8,50.0,94,30.08,5.0,NNE,8.1,17.3,0.00,Rain-Thunderstorm,Light Rain,20,2012-10-26 08:27:00
3:30 AM,51.8,50.0,94,30.09,5.0,North,8.1,17.3,0.01,Rain-Thunderstorm,Light Rain,10,2012-10-26 08:30:00
3:53 AM,51.1,50.0,96,30.06,4.0,North,8.1,-,0.06,Rain-Thunderstorm,Rain,10,2012-10-26 08:53:00
3:59 AM,50.0,50.0,100,30.07,1.8,North,13.8,20.7,0.11,Rain-Thunderstorm,Heavy Rain,10,2012-10-26 08:59:00
4:07 AM,50.0,50.0,100,30.08,1.8,NNE,11.5,24.2,0.16,Rain,Rain,30,2012-10-26 09:07:00
4:09 AM,50.0,50.0,100,30.08,2.5,NNE,11.5,24.2,0.16,Rain-Thunderstorm,Rain,30,2012-10-26 09:09:00
4:16 AM,50.0,50.0,100,30.07,5.0,NNE,11.5,-,0.16,Rain-Thunderstorm,Light Rain,30,2012-10-26 09:16:00
4:30 AM,50.0,50.0,100,30.07,10.0,NNE,11.5,-,0.16,Rain,Light Rain,30,2012-10-26 09:30:00
4:53 AM,50.0,50.0,100,30.06,10.0,NE,12.7,20.7,0.17,,Overcast,40,2012-10-26 09:53:00
5:00 AM,50.0,48.2,94,30.08,10.0,NNE,13.8,21.9,N/A,,Overcast,30,2012-10-26 10:00:00
5:08 AM,50.0,48.2,94,30.08,9.0,NNE,11.5,19.6,N/A,,Overcast,30,2012-10-26 10:08:00
5:25 AM,50.0,48.2,94,30.08,10.0,NNE,12.7,21.9,0.02,Rain,Light Rain,30,2012-10-26 10:25:00
5:53 AM,50.0,48.9,96,30.12,10.0,NNW,9.2,-,0.02,Rain,Light Rain,340,2012-10-26 10:53:00
6:07 AM,50.0,48.2,94,30.09,2.5,NE,11.5,19.6,0.11,Rain-Thunderstorm,Heavy Thunderstorms and Rain,40,2012-10-26 11:07:00
6:09 AM,50.0,48.2,94,30.10,1.8,NNE,11.5,19.6,0.14,Rain-Thunderstorm,Heavy Thunderstorms and Rain,30,2012-10-26 11:09:00
6:15 AM,48.2,48.2,100,30.10,2.0,NNE,10.4,19.6,0.16,Rain-Thunderstorm,Heavy Thunderstorms and Rain,30,2012-10-26 11:15:00
6:18 AM,48.2,48.2,100,30.10,3.0,NNE,11.5,-,0.17,Rain,Heavy Rain,30,2012-10-26 11:18:00
6:53 AM,48.9,46.9,93,30.10,10.0,NNE,16.1,23.0,0.18,,Overcast,30,2012-10-26 11:53:00
7:53 AM,48.0,46.9,96,30.11,4.0,NE,10.4,28.8,0.07,Rain,Rain,50,2012-10-26 12:53:00
8:53 AM,46.9,46.9,100,30.16,6.0,NE,5.8,-,0.19,Rain,Light Rain,50,2012-10-26 13:53:00
10:53 AM,48.9,46.9,93,30.20,10.0,NNE,6.9,-,N/A,,Overcast,20,2012-10-26 15:53:00
11:09 AM,48.2,46.4,93,30.20,10.0,NNE,16.1,21.9,N/A,,Overcast,30,2012-10-26 16:09:00
11:40 AM,48.2,46.4,93,30.20,7.0,NNE,10.4,-,N/A,,Overcast,20,2012-10-26 16:40:00
11:53 AM,48.9,46.9,93,30.20,4.0,NNE,11.5,-,0.00,,Overcast,20,2012-10-26 16:53:00
12:02 PM,48.2,46.4,93,30.20,5.0,NNE,10.4,-,N/A,,Overcast,20,2012-10-26 17:02:00
12:16 PM,48.2,46.4,93,30.21,4.0,NNE,12.7,19.6,0.00,,Overcast,20,2012-10-26 17:16:00
12:29 PM,48.2,46.4,93,30.21,10.0,NNE,13.8,21.9,0.00,,Overcast,20,2012-10-26 17:29:00
12:53 PM,48.9,46.0,90,30.21,10.0,NNE,11.5,-,0.00,,Overcast,20,2012-10-26 17:53:00
1:53 PM,50.0,45.0,83,30.21,10.0,NNE,9.2,-,N/A,,Overcast,30,2012-10-26 18:53:00
2:53 PM,51.1,44.1,77,30.20,10.0,North,9.2,-,N/A,,Overcast,10,2012-10-26 19:53:00
3:53 PM,52.0,44.1,74,30.19,10.0,NNE,8.1,-,N/A,,Overcast,30,2012-10-26 20:53:00
4:53 PM,52.0,45.0,77,30.19,10.0,NE,6.9,-,N/A,,Overcast,50,2012-10-26 21:53:00
5:53 PM,52.0,45.0,77,30.20,10.0,NNE,6.9,-,N/A,,Overcast,20,2012-10-26 22:53:00
6:53 PM,52.0,45.0,77,30.21,10.0,NNE,3.5,-,N/A,,Overcast,30,2012-10-26 23:53:00
8:53 PM,48.9,41.0,74,30.24,10.0,NNW,5.8,-,N/A,,Clear,330,2012-10-27 01:53:00
10:53 PM,46.0,39.9,79,30.26,10.0,NNW,5.8,-,N/A,,Clear,340,2012-10-27 03:53:00
11:53 PM,44.1,39.0,82,30.26,10.0,North,6.9,-,N/A,,Clear,350,2012-10-27 04:53:00